Weather History for OTBD - October, 2012

Change the Weather History Date:

Thursday, October 18, 2012

  Actual Average Record
Temperature  
Mean Temperature 87 °F -  
Max Temperature 95 °F 89 °F 102 °F (2014)
Min Temperature 79 °F 70 °F 74 °F (2013)
Cooling Degree Days 22    
Growing Degree Days 37 (Base 50)    
Moisture  
Dew Point 70 °F    
Average Humidity 58    
Maximum Humidity 74    
Minimum Humidity 30    
Precipitation  
Precipitation 0.00 in 0.00 in - ()
Sea Level Pressure  
Sea Level Pressure 29.92 in    
Wind  
Wind Speed 4 mph ()    
Max Wind Speed 12 mph    
Max Gust Speed -    
Visibility 5.8 miles    
Events      
Averages and records for this station are not official NWS values.
T = Trace of Precipitation, MM = Missing Value Source: Averaged Metar Reports

Daily Weather History Graph

Daily Weather History Graph

Search for Another Location

Airport or City:

Trip Planner

Search our weather history database for the weather conditions in past years. The results will help you decide how hot, cold, wet, or windy it might be!

Date:

Astronomy

Oct. 18, 2012 Rise Set
Actual Time 5:33 AM AST 5:03 PM AST
Civil Twilight 5:10 AM AST 5:26 PM AST
Nautical Twilight 4:43 AM AST 5:53 PM AST
Astronomical Twilight 4:17 AM AST 6:20 PM AST
Moon 8:29 AM AST (10/18) 7:34 PM AST (10/18)
Length of Visible Light 12h 16m
Length of Day
11h 29m
Waxing Crescent, 12% of the Moon is Illuminated
Oct 18
Waxing Crescent
Oct 22
First Quarter
Oct 29
Full
Nov 7
Last Quarter
Nov 14
New

Hourly Weather History & Observations

Time (AST) Temp. Heat Index Dew Point Humidity Pressure Visibility Wind Dir Wind Speed Gust Speed Precip Events Conditions
12:00 AM 84.2 °F 89.6 °F 71.6 °F 66% 29.92 in - Calm Calm - N/A   Clear
12:30 AM 84.2 °F 88.4 °F 69.8 °F 62% 29.92 in - SW 3.5 mph - N/A   Clear
1:00 AM 84.2 °F 89.6 °F 71.6 °F 66% 29.92 in - SW 3.5 mph - N/A   Clear
1:30 AM 82.4 °F 87.2 °F 71.6 °F 70% 29.89 in - SW 3.5 mph - N/A   Clear
2:00 AM 82.4 °F 87.2 °F 71.6 °F 70% 29.89 in - WSW 3.5 mph - N/A   Clear
2:30 AM 82.4 °F 87.2 °F 71.6 °F 70% 29.89 in - SW 4.6 mph - N/A   Clear
3:00 AM 82 °F - 72 °F 64% 29.91 in 7 mi SW 3.5 mph - -  
3:00 AM 82.4 °F 87.2 °F 71.6 °F 70% 29.89 in - SW 3.5 mph - N/A   Clear
3:30 AM 82.4 °F 87.2 °F 71.6 °F 70% 29.89 in - SW 3.5 mph - N/A   Clear
4:00 AM 82.4 °F 87.2 °F 71.6 °F 70% 29.89 in - Variable 1.2 mph - N/A   Clear
4:30 AM 80.6 °F 84.6 °F 71.6 °F 74% 29.92 in - Variable 2.3 mph - N/A   Clear
5:00 AM 80.6 °F 84.6 °F 71.6 °F 74% 29.92 in - Variable 2.3 mph - N/A   Clear
5:30 AM 80.6 °F 84.6 °F 71.6 °F 74% 29.92 in 5.0 mi Variable 2.3 mph - N/A   Unknown
6:00 AM 80.6 °F 84.6 °F 71.6 °F 74% 29.92 in 5.0 mi Variable 2.3 mph - N/A   Unknown
6:30 AM 82.4 °F 87.2 °F 71.6 °F 70% 29.95 in - SW 3.5 mph - N/A   Clear
7:00 AM 84.2 °F 88.4 °F 69.8 °F 62% 29.95 in - SSW 3.5 mph - N/A   Clear
7:30 AM 84.2 °F 88.4 °F 69.8 °F 62% 29.95 in - South 3.5 mph - N/A   Clear
8:00 AM 86.0 °F 90.4 °F 69.8 °F 58% 29.98 in - SSW 3.5 mph - N/A   Clear
8:30 AM 89.6 °F 94.7 °F 69.8 °F 52% 29.98 in - SSW 4.6 mph - N/A   Clear
9:00 AM 90 °F - 67 °F 36% 29.98 in 6 mi SSW 4.6 mph - -  
9:00 AM 89.6 °F 92.2 °F 66.2 °F 46% 29.98 in - SSW 4.6 mph - N/A   Clear
9:30 AM 91.4 °F 94.0 °F 66.2 °F 43% 29.98 in - SSW 5.8 mph - N/A   Clear
10:00 AM 93.2 °F 94.1 °F 62.6 °F 36% 29.95 in - SSW 4.6 mph - N/A   Clear
10:30 AM 95.0 °F 94.4 °F 59.0 °F 30% 29.95 in - SSW 4.6 mph - N/A   Clear
11:00 AM 93.2 °F 96.2 °F 66.2 °F 41% 29.95 in - ESE 9.2 mph - N/A   Clear
11:30 AM 93.2 °F 97.7 °F 68.0 °F 44% 29.92 in - East 8.1 mph - N/A   Clear
12:00 PM 93.2 °F 98.8 °F 69.8 °F 46% 29.92 in - East 10.4 mph - N/A   Clear
1:00 PM 91.4 °F 98.4 °F 71.6 °F 52% 29.92 in - East 11.5 mph - N/A   Clear
1:30 PM 91.4 °F 100.1 °F 73.4 °F 55% 29.89 in - East 10.4 mph - N/A   Clear
2:00 PM 91.4 °F 98.4 °F 71.6 °F 52% 29.89 in - East 9.2 mph - N/A   Clear
2:30 PM 91.4 °F 100.1 °F 73.4 °F 55% 29.89 in - ESE 9.2 mph - N/A   Clear
3:00 PM 90 °F - 74 °F 50% 29.90 in 6 mi East 8.1 mph - -  
3:00 PM 89.6 °F 98.2 °F 73.4 °F 59% 29.89 in - East 8.1 mph - N/A   Clear
3:30 PM 89.6 °F 98.2 °F 73.4 °F 59% 29.89 in - East 8.1 mph - N/A   Clear
4:00 PM 89.6 °F 96.2 °F 71.6 °F 55% 29.89 in - East 8.1 mph - N/A   Clear
4:30 PM 87.8 °F 93.8 °F 71.6 °F 58% 29.89 in - East 8.1 mph - N/A   Clear
5:00 PM 87.8 °F 92.6 °F 69.8 °F 55% 29.89 in - ESE 6.9 mph - N/A   Clear
5:30 PM 87.8 °F 92.6 °F 69.8 °F 55% 29.89 in - East 5.8 mph - N/A   Clear
6:00 PM 87.8 °F 92.6 °F 69.8 °F 55% 29.89 in - East 4.6 mph - N/A   Clear
6:30 PM 86.0 °F 91.8 °F 71.6 °F 62% 29.92 in - ENE 3.5 mph - N/A   Clear
7:00 PM 86.0 °F 91.8 °F 71.6 °F 62% 29.92 in - ENE 3.5 mph - N/A   Clear
7:30 PM 86.0 °F 90.4 °F 69.8 °F 58% 29.95 in - NNE 3.5 mph - N/A   Clear
8:00 PM 86.0 °F 90.4 °F 69.8 °F 58% 29.95 in - NNE 4.6 mph - N/A   Clear
8:30 PM 86.0 °F 90.4 °F 69.8 °F 58% 29.95 in - Variable 2.3 mph - N/A   Clear
9:00 PM 86 °F - 69 °F 49% 29.96 in 6 mi NE 3.5 mph - -   Clear
9:00 PM 86.0 °F 90.4 °F 69.8 °F 58% 29.95 in - NE 3.5 mph - N/A   Clear
9:30 PM 86.0 °F 90.4 °F 69.8 °F 58% 29.95 in - NE 3.5 mph - N/A   Clear
10:00 PM 86.0 °F 90.4 °F 69.8 °F 58% 29.95 in - ENE 3.5 mph - N/A   Clear
10:30 PM 86.0 °F 90.4 °F 69.8 °F 58% 29.95 in - ENE 4.6 mph - N/A   Clear
11:00 PM 86.0 °F 90.4 °F 69.8 °F 58% 29.92 in - ENE 3.5 mph - N/A   Clear
11:30 PM 86.0 °F 91.8 °F 71.6 °F 62% 29.92 in - East 3.5 mph - N/A   Clear